Location: Shandelee
(41.8790°N, 74.8713°W)
Time: 04:28:21
(UTC+00:00)

Cosmos 1315 Rocket - Pass Details

Date: 29 October 2020
Orbit: 530 x 567 km, 81.2° (Epoch: 23 November)

Event Time Altitude Azimuth Distance (km) Brightness Sun altitude
Rises 22:26:32 0° 149° (SSE) 2,675 6.1 -6.2°
Reaches altitude 10° 22:29:16 10° 129° (SE) 1,796 5.1 -6.7°
Maximum altitude 22:31:49 17° 88° (E) 1,431 4.3 -7.1°
Drops below altitude 10° 22:34:23 10° 48° (NE) 1,820 4.9 -7.6°
Sets 22:37:10 0° 28° (NNE) 2,728 6.0 -8.1°
